ITY1321 LIRF-LIPE

Flight info

Callsign ITY1321
Flight time 0h 38m
Altitude 24000
Route SOVAN DCT AMTEL DCT OSMOX/N0380F180 L12 LOMED
Aircraft BCS3/M-SBDE2E3GIRWXY/LB1

Departure

Time 2026-05-04 19:30
Airport Rome–Fiumicino Leonardo da Vinci International Airport (LIRF)

Arrival

Time 2026-05-04 20:09
Airport Bologna Guglielmo Marconi Airport (LIPE)
Time Latitude Longitude Altitude Speed Heading
2026-05-04 19:06 41.79762 12.25512 25 ft 0 kts 116°
2026-05-04 19:21 41.79763 12.25510 25 ft 2 kts 116°
2026-05-04 19:21 41.79769 12.25492 25 ft 2 kts 116°
2026-05-04 19:21 41.79776 12.25474 25 ft 1 kts 116°
2026-05-04 19:21 41.79780 12.25462 25 ft 1 kts 96°
2026-05-04 19:22 41.79776 12.25444 25 ft 2 kts 44°
2026-05-04 19:22 41.79770 12.25438 25 ft 1 kts 18°
2026-05-04 19:22 41.79765 12.25435 25 ft 0 kts 25°
2026-05-04 19:26 41.79766 12.25436 25 ft 1 kts 25°
2026-05-04 19:27 41.79791 12.25452 25 ft 6 kts 24°
2026-05-04 19:27 41.79845 12.25486 25 ft 11 kts 25°
2026-05-04 19:27 41.79929 12.25540 25 ft 15 kts 36°
2026-05-04 19:27 41.79910 12.25675 25 ft 18 kts 117°
2026-05-04 19:28 41.79894 12.25843 24 ft 20 kts 41°
2026-05-04 19:28 41.80037 12.25929 25 ft 24 kts 24°
2026-05-04 19:28 41.80204 12.26033 25 ft 28 kts 25°
2026-05-04 19:28 41.80394 12.26141 25 ft 27 kts 23°
2026-05-04 19:29 41.80556 12.26159 25 ft 24 kts 343°
2026-05-04 19:29 41.80623 12.26131 25 ft 0 kts 345°
2026-05-04 19:29 41.80643 12.26124 25 ft 5 kts 345°
2026-05-04 19:29 41.80699 12.26100 25 ft 11 kts 327°
2026-05-04 19:30 41.80682 12.25922 25 ft 49 kts 249°
2026-05-04 19:30 41.80456 12.25123 26 ft 130 kts 250°
2026-05-04 19:30 41.80123 12.23834 424 ft 155 kts 249°
2026-05-04 19:30 41.79803 12.22486 1337 ft 151 kts 250°
2026-05-04 19:31 41.79513 12.21234 1961 ft 141 kts 245°
2026-05-04 19:31 41.79146 12.19922 2512 ft 163 kts 253°
2026-05-04 19:31 41.79281 12.18355 3150 ft 183 kts 284°
2026-05-04 19:31 41.80068 12.16961 3794 ft 200 kts 314°
2026-05-04 19:32 41.81058 12.15621 4437 ft 212 kts 311°
2026-05-04 19:32 41.82045 12.14124 5212 ft 221 kts 308°
2026-05-04 19:32 41.83024 12.12530 6055 ft 227 kts 306°
2026-05-04 19:32 41.84021 12.10889 6923 ft 231 kts 309°
2026-05-04 19:33 41.85440 12.09952 7731 ft 237 kts 346°
2026-05-04 19:33 41.87000 12.09369 8628 ft 236 kts 342°
2026-05-04 19:33 41.88575 12.08786 9528 ft 234 kts 342°
2026-05-04 19:33 41.90115 12.08214 10396 ft 232 kts 342°
2026-05-04 19:34 41.91643 12.07648 11227 ft 230 kts 342°
2026-05-04 19:34 41.93172 12.07078 12049 ft 227 kts 342°
2026-05-04 19:34 41.94688 12.06512 12696 ft 232 kts 341°
2026-05-04 19:34 41.96314 12.06043 13063 ft 252 kts 354°
2026-05-04 19:35 41.98122 12.05872 13457 ft 268 kts 353°
2026-05-04 19:35 42.00022 12.05700 13817 ft 285 kts 352°
2026-05-04 19:35 42.02068 12.05505 14130 ft 303 kts 353°
2026-05-04 19:35 42.04256 12.05291 14384 ft 322 kts 354°
2026-05-04 19:36 42.06562 12.05062 14602 ft 340 kts 354°
2026-05-04 19:36 42.08989 12.04818 14767 ft 358 kts 353°
2026-05-04 19:36 42.11486 12.04588 15187 ft 364 kts 352°
2026-05-04 19:36 42.14033 12.04353 15735 ft 368 kts 353°
2026-05-04 19:37 42.16602 12.04079 16254 ft 371 kts 354°
2026-05-04 19:37 42.19178 12.03707 16762 ft 370 kts 345°
2026-05-04 19:37 42.21774 12.03168 17239 ft 374 kts 348°
2026-05-04 19:37 42.24332 12.02545 17661 ft 378 kts 349°
2026-05-04 19:38 42.26909 12.01966 18117 ft 379 kts 346°
2026-05-04 19:38 42.29528 12.01412 18575 ft 381 kts 346°
2026-05-04 19:38 42.32149 12.00810 18992 ft 385 kts 349°
2026-05-04 19:38 42.34819 12.00177 19429 ft 387 kts 348°
2026-05-04 19:39 42.37462 11.99601 19834 ft 388 kts 346°
2026-05-04 19:39 42.40145 11.99023 20225 ft 391 kts 348°
2026-05-04 19:39 42.42813 11.98392 20600 ft 394 kts 349°
2026-05-04 19:39 42.45510 11.97770 20972 ft 395 kts 347°
2026-05-04 19:40 42.48240 11.97189 21335 ft 397 kts 347°
2026-05-04 19:40 42.50967 11.96575 21678 ft 400 kts 349°
2026-05-04 19:40 42.53745 11.95911 22006 ft 402 kts 348°
2026-05-04 19:40 42.56501 11.95299 22326 ft 403 kts 346°
2026-05-04 19:41 42.59266 11.94700 22623 ft 406 kts 348°
2026-05-04 19:41 42.62067 11.94042 22901 ft 409 kts 349°
2026-05-04 19:41 42.64847 11.93390 23190 ft 409 kts 347°
2026-05-04 19:41 42.67688 11.92773 23458 ft 411 kts 346°
2026-05-04 19:42 42.70477 11.92152 23723 ft 413 kts 348°
2026-05-04 19:42 42.73327 11.91470 23995 ft 414 kts 348°
2026-05-04 19:42 42.76161 11.90832 24098 ft 418 kts 346°
2026-05-04 19:42 42.79085 11.90193 24119 ft 425 kts 347°
2026-05-04 19:43 42.82008 11.89494 24116 ft 429 kts 349°
2026-05-04 19:43 42.84862 11.88543 24069 ft 423 kts 333°
2026-05-04 19:43 42.87328 11.86349 24147 ft 420 kts 322°
2026-05-04 19:43 42.89907 11.84485 24131 ft 423 kts 332°
2026-05-04 19:44 42.92469 11.82566 24118 ft 422 kts 329°
2026-05-04 19:44 42.95086 11.80701 24113 ft 422 kts 328°
2026-05-04 19:44 42.97673 11.78809 24117 ft 423 kts 330°
2026-05-04 19:44 43.00256 11.76869 24117 ft 422 kts 329°
2026-05-04 19:45 43.02835 11.75020 24112 ft 422 kts 328°
2026-05-04 19:45 43.05448 11.73108 24117 ft 423 kts 330°
2026-05-04 19:45 43.07999 11.71184 24113 ft 423 kts 329°
2026-05-04 19:45 43.10628 11.69290 24112 ft 422 kts 327°
2026-05-04 19:46 43.13226 11.67388 24116 ft 423 kts 330°
2026-05-04 19:46 43.15805 11.65433 24111 ft 423 kts 329°
2026-05-04 19:46 43.18418 11.63537 24107 ft 422 kts 327°
2026-05-04 19:46 43.21005 11.61648 24111 ft 423 kts 330°
2026-05-04 19:47 43.23417 11.59342 24098 ft 418 kts 316°
2026-05-04 19:47 43.25652 11.56828 24099 ft 420 kts 321°
2026-05-04 19:47 43.27922 11.54258 24106 ft 420 kts 318°
2026-05-04 19:47 43.30200 11.51781 24107 ft 420 kts 317°
2026-05-04 19:48 43.32453 11.49259 24105 ft 421 kts 320°
2026-05-04 19:48 43.34707 11.46693 24105 ft 419 kts 319°
2026-05-04 19:48 43.37014 11.44162 24104 ft 419 kts 317°
2026-05-04 19:48 43.39274 11.41635 24105 ft 420 kts 320°
2026-05-04 19:49 43.41511 11.39080 24110 ft 420 kts 319°
2026-05-04 19:49 43.43803 11.36546 24109 ft 419 kts 317°
2026-05-04 19:49 43.46069 11.34013 24109 ft 420 kts 319°
2026-05-04 19:49 43.48329 11.31425 24111 ft 420 kts 318°
2026-05-04 19:50 43.50587 11.28907 24111 ft 420 kts 316°
2026-05-04 19:50 43.52864 11.26372 24118 ft 421 kts 319°
2026-05-04 19:50 43.55120 11.23772 24108 ft 421 kts 319°
2026-05-04 19:50 43.57404 11.21208 24113 ft 421 kts 316°
2026-05-04 19:51 43.59667 11.18693 24115 ft 422 kts 319°
2026-05-04 19:51 43.61923 11.16089 24118 ft 422 kts 319°
2026-05-04 19:51 43.64172 11.13550 24111 ft 421 kts 316°
2026-05-04 19:51 43.66473 11.10986 24112 ft 422 kts 318°
2026-05-04 19:52 43.68706 11.08407 24115 ft 423 kts 319°
2026-05-04 19:52 43.70990 11.05804 24105 ft 422 kts 317°
2026-05-04 19:52 43.73259 11.03279 24112 ft 423 kts 317°
2026-05-04 19:52 43.75504 11.00688 24106 ft 423 kts 319°
2026-05-04 19:53 43.77779 10.98072 24119 ft 422 kts 317°
2026-05-04 19:53 43.80048 10.95542 24121 ft 423 kts 317°
2026-05-04 19:53 43.82399 10.93017 24078 ft 427 kts 328°
2026-05-04 19:53 43.85226 10.91822 24108 ft 434 kts 352°
2026-05-04 19:54 43.88226 10.92164 24099 ft 439 kts 13°
2026-05-04 19:54 43.91007 10.93995 24129 ft 442 kts 32°
2026-05-04 19:54 43.93689 10.96074 24075 ft 441 kts 19°
2026-05-04 19:54 43.96598 10.97263 24130 ft 439 kts 17°
2026-05-04 19:55 43.99458 10.98783 24129 ft 439 kts 17°
2026-05-04 19:55 44.02329 11.00129 24120 ft 439 kts 19°
2026-05-04 19:55 44.05196 11.01689 24122 ft 440 kts 21°
2026-05-04 19:55 44.08011 11.03265 24036 ft 429 kts 20°
2026-05-04 19:56 44.10717 11.04816 23390 ft 419 kts 20°
2026-05-04 19:56 44.13396 11.06319 22859 ft 409 kts 22°
2026-05-04 19:56 44.16047 11.07776 22255 ft 405 kts 21°
2026-05-04 19:56 44.18630 11.09248 21663 ft 398 kts 19°
2026-05-04 19:57 44.21214 11.10725 21049 ft 394 kts 20°
2026-05-04 19:57 44.23754 11.12125 20443 ft 391 kts 22°
2026-05-04 19:57 44.26259 11.13515 19832 ft 386 kts 19°
2026-05-04 19:57 44.28753 11.14964 19196 ft 384 kts 19°
2026-05-04 19:58 44.31193 11.16337 18542 ft 380 kts 21°
2026-05-04 19:58 44.33627 11.17675 17881 ft 375 kts 21°
2026-05-04 19:58 44.36042 11.19058 17128 ft 370 kts 19°
2026-05-04 19:58 44.38395 11.20418 16387 ft 367 kts 21°
2026-05-04 19:59 44.40797 11.21524 14975 ft 365 kts
2026-05-04 19:59 44.43200 11.21186 13925 ft 347 kts 337°
2026-05-04 19:59 44.45219 11.19450 12956 ft 339 kts 317°
2026-05-04 19:59 44.46548 11.16871 12144 ft 328 kts 292°
2026-05-04 20:00 44.47588 11.14150 11563 ft 310 kts 298°
2026-05-04 20:00 44.48547 11.11541 10914 ft 295 kts 295°
2026-05-04 20:00 44.49485 11.09000 10304 ft 291 kts 292°
2026-05-04 20:00 44.50391 11.06490 9693 ft 290 kts 294°
2026-05-04 20:01 44.51273 11.03996 9085 ft 288 kts 294°
2026-05-04 20:01 44.52168 11.01487 8446 ft 286 kts 294°
2026-05-04 20:01 44.53049 10.99035 7853 ft 284 kts 293°
2026-05-04 20:01 44.53931 10.96563 7244 ft 282 kts 294°
2026-05-04 20:02 44.54796 10.94131 6608 ft 281 kts 294°
2026-05-04 20:02 44.55828 10.91822 5910 ft 281 kts 315°
2026-05-04 20:02 44.57561 10.90680 5291 ft 278 kts 353°
2026-05-04 20:02 44.59417 10.91058 4651 ft 273 kts 26°
2026-05-04 20:03 44.61021 10.92423 4016 ft 270 kts 29°
2026-05-04 20:03 44.62683 10.93627 3347 ft 265 kts 30°
2026-05-04 20:03 44.64092 10.95152 2694 ft 256 kts 58°
2026-05-04 20:03 44.64431 10.97409 2594 ft 225 kts 98°
2026-05-04 20:04 44.63975 10.99404 2579 ft 211 kts 112°
2026-05-04 20:04 44.63392 11.01292 2703 ft 208 kts 113°
2026-05-04 20:04 44.62832 11.03066 2728 ft 193 kts 114°
2026-05-04 20:04 44.62227 11.04734 2827 ft 189 kts 116°
2026-05-04 20:05 44.61635 11.06366 2857 ft 189 kts 116°
2026-05-04 20:05 44.61053 11.08000 2865 ft 187 kts 115°
2026-05-04 20:05 44.60468 11.09639 2695 ft 184 kts 116°
2026-05-04 20:05 44.59904 11.11213 2514 ft 178 kts 116°
2026-05-04 20:06 44.59359 11.12737 2371 ft 175 kts 116°
2026-05-04 20:06 44.58804 11.14285 2169 ft 178 kts 116°
2026-05-04 20:06 44.58266 11.15773 1956 ft 165 kts 116°
2026-05-04 20:06 44.57755 11.17198 1743 ft 164 kts 116°
2026-05-04 20:07 44.57242 11.18627 1526 ft 162 kts 117°
2026-05-04 20:07 44.56761 11.19968 1295 ft 146 kts 118°
2026-05-04 20:07 44.56315 11.21200 1127 ft 140 kts 118°
2026-05-04 20:07 44.55877 11.22410 948 ft 138 kts 119°
2026-05-04 20:08 44.55436 11.23606 744 ft 137 kts 120°
2026-05-04 20:08 44.55012 11.24787 580 ft 135 kts 117°
2026-05-04 20:08 44.54595 11.25960 400 ft 134 kts 119°
2026-05-04 20:08 44.54171 11.27140 219 ft 134 kts 118°
2026-05-04 20:09 44.53767 11.28262 121 ft 114 kts 117°
2026-05-04 20:09 44.53473 11.29061 125 ft 63 kts 117°
2026-05-04 20:09 44.53329 11.29442 127 ft 37 kts 121°
2026-05-04 20:09 44.53188 11.29654 127 ft 23 kts 148°
2026-05-04 20:10 44.53084 11.29752 127 ft 16 kts 145°
2026-05-04 20:10 44.53030 11.29753 128 ft 7 kts 265°
2026-05-04 20:10 44.53052 11.29684 128 ft 7 kts 294°
2026-05-04 20:10 44.53077 11.29615 128 ft 8 kts 296°
2026-05-04 20:11 44.53117 11.29505 128 ft 14 kts 297°
2026-05-04 20:11 44.53153 11.29396 128 ft 9 kts 269°
2026-05-04 20:11 44.53110 11.29345 128 ft 7 kts 205°
2026-05-04 20:11 44.53075 11.29321 129 ft 3 kts 206°
2026-05-04 20:12 44.53072 11.29319 129 ft 0 kts 206°
2026-05-04 20:12 44.53072 11.29318 129 ft 0 kts 206°
2026-05-04 20:12 44.53071 11.29318 129 ft 0 kts 206°
2026-05-04 20:12 44.53070 11.29317 129 ft 0 kts 206°